When you browse on this site, cookies collect data to enhance your experience and personalize the content and advertising you see.
Visit our Privacy Policy to learn more. By continuing to use the site, you agree to this use of cookies and data.
  • In Hungary
  • List of Countries
  • For 7 days
  • Water Temperature
  • Satellite Maps
  • Weather Map
  • News
  • Weather Widgets
  • user-avatar
    Login

    Hourly Weather Bagheria

    Today, 15 December, Saturday

    Time Temperature Precipitation Wind Pressure Humidity
    00:00 +12°C° 0.4 mm 3 mps 749 mmHg 84%
    01:00 +12°C° 0 mm 3 mps 749 mmHg 85%
    02:00 +12°C° 0.4 mm 3 mps 749 mmHg 85%
    03:00 +12°C° 0.4 mm 3 mps 750 mmHg 85%
    04:00 +12°C° 0.4 mm 4 mps 750 mmHg 85%
    05:00 +12°C° 0.6 mm 4 mps 750 mmHg 86%
    06:00 +12°C° 0.6 mm 5 mps 750 mmHg 87%
    07:00 +12°C° 0 mm 5 mps 751 mmHg 89%
    08:00 +11°C° 0.5 mm 6 mps 751 mmHg 88%
    09:00 +11°C° 0.5 mm 6 mps 752 mmHg 86%
    10:00 +11°C° 0.5 mm 6 mps 752 mmHg 85%
    11:00 +11°C° 0.1 mm 7 mps 753 mmHg 80%
    12:00 +11°C° 0.1 mm 7 mps 753 mmHg 76%
    13:00 +12°C° 0 mm 7 mps 753 mmHg 73%
    14:00 +11°C° 0 mm 7 mps 753 mmHg 72%
    15:00 +11°C° 0 mm 7 mps 754 mmHg 71%
    16:00 +11°C° 0 mm 7 mps 754 mmHg 70%
    17:00 +10°C° 0 mm 7 mps 755 mmHg 72%
    18:00 +9°C° 0 mm 7 mps 755 mmHg 74%
    19:00 +9°C° 0 mm 6 mps 755 mmHg 76%
    20:00 +9°C° 0 mm 6 mps 756 mmHg 77%
    21:00 +8°C° 0 mm 6 mps 756 mmHg 77%
    22:00 +8°C° 0 mm 6 mps 756 mmHg 77%
    23:00 +8°C° 0 mm 6 mps 756 mmHg 77%

    Tomorrow, 16 December, Sunday

    Time Temperature Precipitation Wind Pressure Humidity
    00:00 +8°C° 0 mm 6 mps 757 mmHg 77%
    01:00 +8°C° 0 mm 6 mps 757 mmHg 78%
    02:00 +8°C° 0 mm 5 mps 757 mmHg 78%
    03:00 +8°C° 0 mm 5 mps 757 mmHg 78%
    04:00 +8°C° 0 mm 5 mps 757 mmHg 79%
    05:00 +8°C° 0 mm 4 mps 758 mmHg 79%
    06:00 +7°C° 0 mm 4 mps 758 mmHg 79%
    07:00 +7°C° 0 mm 4 mps 758 mmHg 79%
    08:00 +10°C° 0 mm 4 mps 759 mmHg 74%
    09:00 +11°C° 0 mm 3 mps 759 mmHg 68%
    10:00 +12°C° 0 mm 3 mps 760 mmHg 63%
    11:00 +13°C° 0 mm 3 mps 760 mmHg 61%
    12:00 +14°C° 0 mm 3 mps 759 mmHg 59%
    13:00 +14°C° 0 mm 3 mps 759 mmHg 57%
    14:00 +14°C° 0 mm 3 mps 759 mmHg 60%
    15:00 +15°C° 0 mm 2 mps 759 mmHg 63%
    16:00 +15°C° 0 mm 2 mps 759 mmHg 67%
    17:00 +14°C° 0 mm 2 mps 759 mmHg 70%
    18:00 +13°C° 0 mm 2 mps 759 mmHg 74%
    19:00 +12°C° 0 mm 2 mps 760 mmHg 77%
    20:00 +13°C° 0 mm 2 mps 760 mmHg 78%
    21:00 +12°C° 0 mm 3 mps 760 mmHg 78%
    22:00 +12°C° 0 mm 3 mps 760 mmHg 79%
    23:00 +12°C° 0 mm 4 mps 759 mmHg 81%

    Day after tomorrow, 17 December, Monday

    Time Temperature Precipitation Wind Pressure Humidity
    00:00 +12°C° 0 mm 4 mps 759 mmHg 84%
    01:00 +12°C° 0 mm 5 mps 758 mmHg 86%
    02:00 +12°C° 0 mm 5 mps 758 mmHg 86%
    03:00 +12°C° 0 mm 5 mps 758 mmHg 86%
    04:00 +13°C° 0 mm 6 mps 757 mmHg 86%
    05:00 +11°C° 0 mm 6 mps 757 mmHg 86%
    06:00 +11°C° 0 mm 6 mps 757 mmHg 86%
    07:00 +11°C° 0 mm 6 mps 757 mmHg 86%
    08:00 +14°C° 0.1 mm 6 mps 757 mmHg 84%
    09:00 +15°C° 0.1 mm 7 mps 757 mmHg 82%
    10:00 +16°C° 0.1 mm 7 mps 757 mmHg 80%
    11:00 +16°C° 0.3 mm 8 mps 756 mmHg 77%
    12:00 +16°C° 0.3 mm 9 mps 756 mmHg 74%
    13:00 +16°C° 0.3 mm 9 mps 756 mmHg 72%
    14:00 +15°C° 0.2 mm 9 mps 756 mmHg 73%
    15:00 +15°C° 0.2 mm 8 mps 756 mmHg 74%
    16:00 +13°C° 0.2 mm 8 mps 756 mmHg 75%
    17:00 +12°C° 0.2 mm 8 mps 756 mmHg 75%
    18:00 +12°C° 0.2 mm 8 mps 756 mmHg 75%
    19:00 +11°C° 0.2 mm 8 mps 757 mmHg 75%
    20:00 +11°C° 0.2 mm 8 mps 757 mmHg 74%
    21:00 +11°C° 0.2 mm 9 mps 757 mmHg 73%
    22:00 +11°C° 0.2 mm 9 mps 757 mmHg 73%
    23:00 +10°C° 0.4 mm 9 mps 757 mmHg 75%

    18 December, Tuesday

    Time Temperature Precipitation Wind Pressure Humidity
    00:00 +10°C° 0.4 mm 8 mps 757 mmHg 77%
    01:00 +10°C° 0.4 mm 8 mps 757 mmHg 79%
    02:00 +10°C° 0.3 mm 9 mps 757 mmHg 78%
    03:00 +10°C° 0.3 mm 9 mps 757 mmHg 78%
    04:00 +10°C° 0.3 mm 9 mps 757 mmHg 78%
    05:00 +10°C° 0.3 mm 8 mps 757 mmHg 79%
    06:00 +10°C° 0.3 mm 7 mps 758 mmHg 80%
    07:00 +10°C° 0.3 mm 6 mps 758 mmHg 81%
    08:00 +10°C° 0.1 mm 6 mps 759 mmHg 78%
    09:00 +11°C° 0.1 mm 6 mps 760 mmHg 74%
    10:00 +11°C° 0.1 mm 6 mps 760 mmHg 70%
    11:00 +13°C° 0 mm 5 mps 760 mmHg 68%
    12:00 +13°C° 0 mm 5 mps 760 mmHg 65%
    13:00 +14°C° 0 mm 5 mps 760 mmHg 63%
    14:00 +13°C° 0 mm 5 mps 761 mmHg 65%
    15:00 +13°C° 0 mm 5 mps 761 mmHg 66%
    16:00 +12°C° 0 mm 5 mps 761 mmHg 68%
    17:00 +12°C° 0 mm 4 mps 761 mmHg 70%
    18:00 +11°C° 0 mm 4 mps 762 mmHg 73%
    19:00 +10°C° 0 mm 3 mps 762 mmHg 75%
    20:00 +10°C° 0 mm 3 mps 762 mmHg 77%
    21:00 +10°C° 0 mm 2 mps 763 mmHg 78%
    22:00 +9°C° 0 mm 2 mps 763 mmHg 79%
    23:00 +10°C° 0 mm 1 mps 763 mmHg 80%

    19 December, Wednesday

    Time Temperature Precipitation Wind Pressure Humidity
    00:00 +10°C° 0 mm 1 mps 763 mmHg 81%
    01:00 +10°C° 0 mm 1 mps 763 mmHg 82%
    02:00 +10°C° 0 mm 1 mps 762 mmHg 81%
    03:00 +10°C° 0 mm 1 mps 762 mmHg 80%
    04:00 +9°C° 0 mm 1 mps 762 mmHg 80%
    05:00 +9°C° 0 mm 1 mps 762 mmHg 76%
    06:00 +9°C° 0 mm 1 mps 763 mmHg 73%
    07:00 +9°C° 0 mm 1 mps 763 mmHg 70%
    08:00 +11°C° 0 mm 1 mps 763 mmHg 62%
    09:00 +13°C° 0 mm 1 mps 763 mmHg 55%
    10:00 +15°C° 0 mm 1 mps 763 mmHg 47%
    11:00 +15°C° 0 mm 1 mps 763 mmHg 45%
    12:00 +16°C° 0 mm 1 mps 762 mmHg 42%
    13:00 +18°C° 0 mm 1 mps 762 mmHg 40%
    14:00 +16°C° 0 mm 1 mps 762 mmHg 46%
    15:00 +15°C° 0 mm 1 mps 761 mmHg 52%
    16:00 +15°C° 0 mm 1 mps 761 mmHg 57%
    17:00 +13°C° 0 mm 1 mps 761 mmHg 61%
    18:00 +12°C° 0 mm 1 mps 762 mmHg 65%
    19:00 +11°C° 0 mm 1 mps 762 mmHg 69%
    20:00 +10°C° 0 mm 2 mps 762 mmHg 68%
    21:00 +10°C° 0 mm 2 mps 762 mmHg 67%
    22:00 +10°C° 0 mm 2 mps 762 mmHg 66%
    23:00 +10°C° 0 mm 2 mps 761 mmHg 65%

    20 December, Thursday

    Time Temperature Precipitation Wind Pressure Humidity
    00:00 +10°C° 0 mm 3 mps 761 mmHg 64%
    01:00 +10°C° 0 mm 3 mps 761 mmHg 63%
    02:00 +10°C° 0 mm 3 mps 761 mmHg 67%
    03:00 +10°C° 0 mm 3 mps 761 mmHg 70%
    04:00 +10°C° 0 mm 3 mps 761 mmHg 73%
    05:00 +10°C° 0 mm 3 mps 761 mmHg 77%
    06:00 +10°C° 0 mm 3 mps 761 mmHg 81%
    07:00 +10°C° 0 mm 4 mps 761 mmHg 85%
    08:00 +12°C° 0 mm 4 mps 761 mmHg 82%
    09:00 +13°C° 0 mm 4 mps 761 mmHg 78%
    10:00 +14°C° 0 mm 4 mps 761 mmHg 74%
    11:00 +15°C° 0 mm 5 mps 761 mmHg 71%
    12:00 +16°C° 0 mm 5 mps 761 mmHg 68%
    13:00 +16°C° 0 mm 5 mps 761 mmHg 64%
    14:00 +16°C° 0.1 mm 5 mps 761 mmHg 69%
    15:00 +15°C° 0.1 mm 5 mps 761 mmHg 73%
    16:00 +14°C° 0.1 mm 5 mps 761 mmHg 77%
    17:00 +13°C° 0 mm 4 mps 761 mmHg 79%
    18:00 +12°C° 0 mm 4 mps 762 mmHg 81%
    19:00 +11°C° 0 mm 4 mps 762 mmHg 83%
    20:00 +11°C° 0 mm 4 mps 762 mmHg 82%
    21:00 +11°C° 0 mm 4 mps 762 mmHg 82%
    22:00 +11°C° 0 mm 4 mps 763 mmHg 81%
    23:00 +10°C° 0 mm 5 mps 763 mmHg 80%
    Show more